Location: ??????
(55.6130°N, 37.7882°E)
Time: 22:15:02
(UTC+00:00)

Envisat - Pass Details

Date: 26 June 2024
Orbit: 762 x 764 km, 98.3° (Epoch: 21 July)

Event Time Altitude Azimuth Distance (km) Brightness Sun altitude
Rises 23:28:24 0° 24° (NNE) 3,242 8.9 -7.3°
Reaches altitude 10° 23:31:28 10° 44° (NE) 2,310 7.0 -7.1°
Maximum altitude 23:34:54 18° 86° (E) 1,813 5.4 -6.9°
Drops below altitude 10° 23:38:19 10° 129° (SE) 2,298 5.4 -6.6°
Sets 23:41:21 0° 148° (SSE) 3,218 5.9 -6.4°
